Location: The Saddle
(36.8333°N, 80.3417°W)
Time: 08:21:55
(UTC-05:00)

Vanguard 2 Rocket - Pass Details

Date: 18 December 2023
Orbit: 555 x 3309 km, 32.9° (Epoch: 02 March)

Event Time Altitude Azimuth Distance (km) Brightness Sun altitude
Rises 14:27:37 0° 273° (W) 5,249 11.2 22.5°
Reaches altitude 10° 14:30:31 10° 272° (W) 4,554 11.0 22.2°
Maximum altitude 14:44:25 72° 191° (S) 2,976 10.1 20.6°
Drops below altitude 10° 15:04:29 10° 112° (ESE) 6,259 11.0 18.1°
Sets 15:09:19 0° 111° (ESE) 7,225 11.3 17.5°
